TimeMST,TemperatureF,Dew PointF,Humidity,Sea Level PressureIn,VisibilityMPH,Wind Direction,Wind SpeedMPH,Gust SpeedMPH,PrecipitationIn,Events,Conditions,WindDirDegrees,DateUTC
12:53 AM,42.1,25.0,51,30.01,10.0,Calm,Calm,-,N/A,,Clear,0,2013-02-26 07:53:00
1:53 AM,43.0,23.0,45,30.01,10.0,Calm,Calm,-,N/A,,Clear,0,2013-02-26 08:53:00
2:53 AM,39.0,25.0,57,29.99,10.0,ESE,5.8,-,N/A,,Clear,120,2013-02-26 09:53:00
3:53 AM,37.9,25.0,60,29.96,10.0,Calm,Calm,-,N/A,,Clear,0,2013-02-26 10:53:00
4:53 AM,41.0,21.9,47,29.96,10.0,NNE,10.4,-,N/A,,Clear,30,2013-02-26 11:53:00
5:53 AM,41.0,21.0,45,29.97,10.0,Variable,3.5,-,N/A,,Clear,0,2013-02-26 12:53:00
6:53 AM,41.0,21.0,45,29.98,10.0,Variable,3.5,-,N/A,,Clear,0,2013-02-26 13:53:00
7:53 AM,39.9,25.0,55,29.99,10.0,Calm,Calm,-,N/A,,Clear,0,2013-02-26 14:53:00
8:53 AM,46.0,24.1,42,30.01,10.0,Calm,Calm,-,N/A,,Clear,0,2013-02-26 15:53:00
9:53 AM,50.0,23.0,35,30.01,10.0,West,3.5,-,N/A,,Clear,270,2013-02-26 16:53:00
10:53 AM,53.1,19.0,26,30.01,10.0,SW,3.5,-,N/A,,Clear,220,2013-02-26 17:53:00
11:53 AM,55.9,19.9,25,30.01,10.0,WSW,4.6,-,N/A,,Clear,240,2013-02-26 18:53:00
12:53 PM,59.0,19.9,22,29.98,10.0,Variable,5.8,-,N/A,,Clear,0,2013-02-26 19:53:00
1:53 PM,61.0,19.0,20,29.95,10.0,SSW,8.1,-,N/A,,Clear,200,2013-02-26 20:53:00
2:53 PM,63.0,15.1,16,29.93,10.0,Variable,3.5,-,N/A,,Clear,0,2013-02-26 21:53:00
3:53 PM,66.0,10.0,11,29.92,10.0,SSE,4.6,-,N/A,,Clear,160,2013-02-26 22:53:00
4:53 PM,66.0,7.0,10,29.91,10.0,Variable,3.5,-,N/A,,Clear,0,2013-02-26 23:53:00
5:53 PM,64.9,8.1,11,29.92,10.0,WNW,6.9,-,N/A,,Clear,290,2013-02-27 00:53:00
6:53 PM,61.0,17.1,18,29.94,10.0,Calm,Calm,-,N/A,,Clear,0,2013-02-27 01:53:00
7:53 PM,59.0,3.0,11,29.97,10.0,North,10.4,-,N/A,,Clear,360,2013-02-27 02:53:00
8:53 PM,55.9,8.1,15,29.98,10.0,North,5.8,-,N/A,,Clear,10,2013-02-27 03:53:00
9:53 PM,53.1,10.9,19,30.02,10.0,NE,4.6,-,N/A,,Clear,50,2013-02-27 04:53:00
10:53 PM,51.1,10.0,19,30.04,10.0,NNE,8.1,-,N/A,,Clear,20,2013-02-27 05:53:00
11:53 PM,48.9,9.0,20,30.06,10.0,NE,4.6,-,N/A,,Clear,40,2013-02-27 06:53:00